Greenville, NC

5:23 PM EDT on May 23, 2018 (GMT -0400)
Pitt-Greenville

Weather History for KPGV - March, 2014

Change the Weather History Date:

Friday, March 7, 2014

  Actual Average Record
Temperature  
Mean Temperature 40 °F -  
Max Temperature 44 °F 61 °F 84 °F (1961)
Min Temperature 37 °F 37 °F 18 °F (1960)
Degree Days  
Heating Degree Days 24    
Moisture  
Dew Point 39 °F    
Average Humidity 95    
Maximum Humidity 100    
Minimum Humidity 87    
Precipitation  
Precipitation 0.84 in - - ()
Sea Level Pressure  
Sea Level Pressure 29.89 in    
Wind  
Wind Speed 17 mph (NNE)    
Max Wind Speed 25 mph    
Max Gust Speed 33 mph    
Visibility 8 miles    
Events Rain    
Averages and records for this station are not official NWS values.
T = Trace of Precipitation, MM = Missing Value Source: NWS Daily Summary

Daily Weather History Graph

Daily Weather History Graph

Search for Another Location

Airport or City:

Astronomy

Mar. 07, 2014 Rise Set
Actual Time 6:31 AM EST 6:10 PM EST
Civil Twilight 6:05 AM EST 6:35 PM EST
Nautical Twilight 5:36 AM EST 7:05 PM EST
Astronomical Twilight 5:06 AM EST 7:34 PM EST
Moon 10:35 AM EST (3/7) 12:01 AM EST (3/7)
Length of Visible Light 12h 29m
Length of Day
11h 38m
Waxing Crescent, 42% of the Moon is Illuminated
Mar 7
Waxing Crescent
Mar 8
First Quarter
Mar 16
Full
Mar 23
Last Quarter
Mar 30
New

Hourly Weather History & Observations

Time (EST) Temp. Windchill Dew Point Humidity Pressure Visibility Wind Dir Wind Speed Gust Speed Precip Events Conditions
12:15 AM 37.4 °F 27.5 °F 37.4 °F 100% 30.09 in 7.0 mi NNE 18.4 mph 24.2 mph 0.03 in Rain Light Rain
12:35 AM 37.4 °F 27.8 °F 37.4 °F 100% 30.08 in 7.0 mi NE 17.3 mph 23.0 mph 0.07 in Rain Light Rain
12:55 AM 37.4 °F 27.2 °F 37.4 °F 100% 30.06 in 7.0 mi NE 19.6 mph 28.8 mph 0.11 in Rain Light Rain
1:15 AM 37.4 °F 27.5 °F 37.4 °F 100% 30.02 in 7.0 mi NE 18.4 mph 31.1 mph 0.05 in Rain Light Rain
1:35 AM 37.4 °F 27.8 °F 37.4 °F 100% 30.01 in 5.0 mi NE 17.3 mph 26.5 mph 0.12 in Rain Rain
1:55 AM 37.4 °F 27.8 °F 37.4 °F 100% 30.01 in 3.0 mi NNE 17.3 mph 26.5 mph 0.18 in Rain Light Rain
2:15 AM 37.4 °F 27.8 °F 37.4 °F 100% 30.00 in 2.5 mi NNE 17.3 mph 26.5 mph 0.08 in   Overcast
2:35 AM 37.4 °F 27.5 °F 37.4 °F 100% 30.00 in 5.0 mi NNE 18.4 mph 26.5 mph 0.13 in Rain Heavy Rain
2:55 AM 37.4 °F 27.8 °F 37.4 °F 100% 29.98 in 5.0 mi NNE 17.3 mph 24.2 mph 0.18 in Rain Heavy Rain
3:15 AM 37.4 °F 27.5 °F 37.4 °F 100% 29.97 in 7.0 mi NNE 18.4 mph 25.3 mph 0.03 in Rain Light Rain
3:35 AM 37.4 °F 27.8 °F 37.4 °F 100% 29.98 in 7.0 mi NNE 17.3 mph 20.7 mph 0.05 in Rain Rain
3:55 AM 37.4 °F 26.6 °F 37.4 °F 100% 29.95 in 7.0 mi NNE 21.9 mph 28.8 mph 0.08 in Rain Rain
4:15 AM 37.4 °F 28.2 °F 37.4 °F 100% 29.99 in 7.0 mi North 16.1 mph 19.6 mph 0.03 in Rain Rain
4:35 AM 37.4 °F 28.2 °F 37.4 °F 100% 29.99 in 7.0 mi NNE 16.1 mph 19.6 mph 0.09 in Rain Rain
4:55 AM 37.4 °F 28.2 °F 37.4 °F 100% 29.99 in 4.0 mi NE 16.1 mph 24.2 mph 0.15 in   Overcast
5:15 AM 37.4 °F 26.4 °F 37.4 °F 100% 29.94 in 7.0 mi ENE 23.0 mph 29.9 mph 0.05 in Rain Light Rain
5:35 AM 39.2 °F 28.3 °F 39.2 °F 100% 29.90 in 5.0 mi ENE 25.3 mph 32.2 mph 0.10 in Rain Light Rain
5:55 AM 41.0 °F 31.1 °F 41.0 °F 100% 29.89 in 10.0 mi NE 23.0 mph 32.2 mph 0.11 in Rain Rain
6:15 AM 41.0 °F 32.2 °F 41.0 °F 100% 29.88 in 10.0 mi NE 18.4 mph 26.5 mph N/A   Light Drizzle
6:35 AM 42.8 °F 35.4 °F 42.8 °F 100% 29.88 in 10.0 mi NE 15.0 mph 26.5 mph N/A   Overcast
6:55 AM 42.8 °F 35.8 °F 42.8 °F 100% 29.89 in 10.0 mi NNE 13.8 mph 25.3 mph N/A   Overcast
7:15 AM 44.6 °F 38.1 °F 42.8 °F 93% 29.90 in 10.0 mi NNE 13.8 mph 18.4 mph N/A   Overcast
7:35 AM 44.6 °F 38.4 °F 44.6 °F 100% 29.88 in 10.0 mi NNE 12.7 mph 19.6 mph N/A   Overcast
7:55 AM 44.6 °F 37.2 °F 44.6 °F 100% 29.88 in 10.0 mi NNE 17.3 mph 23.0 mph N/A   Overcast
8:15 AM 44.6 °F 37.8 °F 44.6 °F 100% 29.88 in 10.0 mi NNE 15.0 mph 24.2 mph N/A   Overcast
8:35 AM 44.6 °F 37.8 °F 44.6 °F 100% 29.89 in 10.0 mi NNE 15.0 mph - N/A   Overcast
8:55 AM 44.6 °F 37.8 °F 42.8 °F 93% 29.89 in 10.0 mi NNE 15.0 mph 20.7 mph N/A   Overcast
9:15 AM 44.6 °F 38.4 °F 42.8 °F 93% 29.89 in 10.0 mi North 12.7 mph - N/A   Overcast
9:35 AM 44.6 °F 37.4 °F 44.6 °F 100% 29.89 in 10.0 mi NNE 16.1 mph 19.6 mph N/A   Overcast
9:55 AM 44.6 °F 38.1 °F 42.8 °F 93% 29.89 in 10.0 mi NNE 13.8 mph 23.0 mph N/A   Overcast
10:15 AM 42.8 °F 35.4 °F 42.8 °F 100% 29.89 in 10.0 mi North 15.0 mph 24.2 mph N/A   Overcast
10:35 AM 42.8 °F 34.8 °F 42.8 °F 100% 29.89 in 10.0 mi NNE 17.3 mph 25.3 mph N/A   Overcast
10:55 AM 42.8 °F 35.1 °F 42.8 °F 100% 29.89 in 7.0 mi NNE 16.1 mph 20.7 mph N/A   Overcast
11:15 AM 42.8 °F 35.1 °F 42.8 °F 100% 29.88 in 4.0 mi NNE 16.1 mph 24.2 mph N/A   Overcast
11:35 AM 42.8 °F 34.8 °F 42.8 °F 100% 29.87 in 2.0 mi NNE 17.3 mph 23.0 mph N/A Rain Light Rain
11:55 AM 42.8 °F 34.8 °F 42.8 °F 100% 29.86 in 1.8 mi NNE 17.3 mph 24.2 mph N/A Rain Light Rain
12:15 PM 42.8 °F 35.1 °F 42.8 °F 100% 29.86 in 2.0 mi North 16.1 mph - 0.01 in Rain Light Rain
12:35 PM 42.8 °F 34.0 °F 42.8 °F 100% 29.84 in 2.0 mi North 20.7 mph 26.5 mph 0.01 in Rain Light Rain
12:55 PM 42.8 °F 35.8 °F 41.0 °F 93% 29.83 in 2.0 mi North 13.8 mph 24.2 mph 0.01 in Rain Light Rain
1:15 PM 42.8 °F 34.5 °F 41.0 °F 93% 29.82 in 2.5 mi North 18.4 mph 25.3 mph N/A Rain Light Rain
1:35 PM 42.8 °F 34.5 °F 41.0 °F 93% 29.81 in 3.0 mi North 18.4 mph 24.2 mph N/A   Overcast
1:55 PM 41.0 °F 32.5 °F 41.0 °F 100% 29.81 in 5.0 mi North 17.3 mph 23.0 mph N/A   Overcast
2:15 PM 41.0 °F 31.9 °F 41.0 °F 100% 29.81 in 10.0 mi North 19.6 mph 29.9 mph N/A   Overcast
2:35 PM 41.0 °F 31.6 °F 39.2 °F 93% 29.81 in 5.0 mi North 20.7 mph 28.8 mph N/A   Overcast
2:50 PM 41.0 °F 31.9 °F 39.2 °F 93% 29.81 in 10.0 mi North 19.6 mph 33.4 mph N/A   Overcast
3:15 PM 41.0 °F 32.2 °F 37.4 °F 87% 29.81 in 7.0 mi North 18.4 mph 31.1 mph N/A   Light Drizzle
3:35 PM 41.0 °F 32.2 °F 37.4 °F 87% 29.81 in 7.0 mi North 18.4 mph 29.9 mph 0.01 in   Drizzle
3:55 PM 39.2 °F 29.8 °F 37.4 °F 93% 29.80 in 5.0 mi North 18.4 mph 29.9 mph 0.01 in   Light Drizzle
4:15 PM 39.2 °F 29.0 °F 37.4 °F 93% 29.81 in 7.0 mi North 21.9 mph 31.1 mph N/A   Overcast
4:35 PM 41.0 °F 31.6 °F 37.4 °F 87% 29.81 in 10.0 mi North 20.7 mph 29.9 mph N/A Rain Light Rain
4:55 PM 41.0 °F 31.6 °F 37.4 °F 87% 29.82 in 10.0 mi North 20.7 mph 27.6 mph N/A Rain Light Rain
5:15 PM 41.0 °F 32.5 °F 37.4 °F 87% 29.82 in 10.0 mi North 17.3 mph 28.8 mph N/A Rain Light Rain
5:35 PM 41.0 °F 31.9 °F 37.4 °F 87% 29.82 in 10.0 mi North 19.6 mph 27.6 mph 0.01 in Rain Light Rain
5:55 PM 41.0 °F 31.9 °F 37.4 °F 87% 29.83 in 10.0 mi North 19.6 mph 27.6 mph 0.01 in Rain Light Rain
6:15 PM 41.0 °F 33.1 °F 37.4 °F 87% 29.84 in 10.0 mi North 15.0 mph 24.2 mph N/A   Overcast
6:35 PM 41.0 °F 32.8 °F 37.4 °F 87% 29.84 in 10.0 mi North 16.1 mph 21.9 mph N/A   Overcast
6:55 PM 39.2 °F 31.2 °F 37.4 °F 93% 29.85 in 10.0 mi North 13.8 mph 19.6 mph N/A Rain Light Rain
7:15 PM 39.2 °F 31.6 °F 35.6 °F 87% 29.86 in 10.0 mi North 12.7 mph 20.7 mph N/A   Light Drizzle
7:30 PM 39.2 °F 32.0 °F 35.6 °F 87% 29.87 in 10.0 mi North 11.5 mph 25.3 mph N/A   Overcast
7:55 PM 39.2 °F 32.0 °F 35.6 °F 87% 29.87 in 10.0 mi North 11.5 mph 18.4 mph N/A   Light Drizzle
8:15 PM 39.2 °F 32.0 °F 35.6 °F 87% 29.87 in 10.0 mi NNW 11.5 mph 16.1 mph N/A   Light Drizzle
8:35 PM 37.4 °F 30.8 °F 35.6 °F 93% 29.87 in 10.0 mi North 9.2 mph - N/A   Light Drizzle
8:55 PM 37.4 °F 29.3 °F 35.6 °F 93% 29.87 in 10.0 mi North 12.7 mph 19.6 mph N/A   Overcast
9:15 PM 37.4 °F 30.3 °F 35.6 °F 93% 29.88 in 10.0 mi North 10.4 mph 17.3 mph N/A   Overcast
9:35 PM 37.4 °F 29.8 °F 35.6 °F 93% 29.89 in 10.0 mi North 11.5 mph 17.3 mph N/A   Mostly Cloudy
9:55 PM 37.4 °F 30.3 °F 33.8 °F 87% 29.89 in 10.0 mi NNW 10.4 mph 17.3 mph N/A   Scattered Clouds
10:15 PM 37.4 °F 30.3 °F 33.8 °F 87% 29.89 in 10.0 mi NNW 10.4 mph 17.3 mph N/A   Clear
10:35 PM 37.4 °F 31.4 °F 33.8 °F 87% 29.90 in 10.0 mi NNW 8.1 mph - N/A   Clear
10:55 PM 37.4 °F 31.4 °F 33.8 °F 87% 29.91 in 10.0 mi NNW 8.1 mph 16.1 mph N/A   Clear
11:15 PM 37.4 °F 31.4 °F 33.8 °F 87% 29.92 in 10.0 mi NNW 8.1 mph - N/A   Clear
11:35 PM 37.4 °F 33.8 °F 33.8 °F 87% 29.93 in 10.0 mi NNW 4.6 mph - N/A   Clear
11:55 PM 37.4 °F 32.8 °F 33.8 °F 87% 29.93 in 10.0 mi NNW 5.8 mph - N/A   Clear